| time (UTC) | temp C | wind direction | speed KPH | gust KPH | rain 1hr cm | rain 24hr cm | rain mn cm | humidity % | barometer mb |
| 20260903174603 | 27 | 359 | 4.8 | 11.3 | 0.00 | 0.00 | 0.00 | 52 | 1022.0 |
| 20260903174055 | 27 | 352 | 6.4 | 11.3 | 0.00 | 0.00 | 0.00 | 50 | 1022.1 |
| 20260903173552 | 27 | 32 | 3.2 | 9.7 | 0.00 | 0.00 | 0.00 | 52 | 1022.2 |
| 20260903173101 | 27 | 3 | 3.2 | 11.3 | 0.00 | 0.00 | 0.00 | 52 | 1022.1 |
| 20260903172554 | 27 | 59 | 3.2 | 11.3 | 0.00 | 0.00 | 0.00 | 52 | 1022.2 |
| 20260903172058 | 26 | 46 | 8.0 | 11.3 | 0.00 | 0.00 | 0.00 | 53 | 1022.3 |
| 20260903171612 | 26 | 215 | 1.6 | 8.0 | 0.00 | 0.00 | 0.00 | 53 | 1022.3 |
| 20260903171058 | 26 | 243 | 3.2 | 9.7 | 0.00 | 0.00 | 0.00 | 53 | 1022.3 |
| 20260903170555 | 26 | 0 | 4.8 | 12.9 | 0.00 | 0.00 | 0.00 | 53 | 1022.3 |
| 20260903170110 | 26 | 124 | 4.8 | 12.9 | 0.00 | 0.00 | 0.00 | 53 | 1022.3 |
| 20260903165556 | 26 | 129 | 6.4 | 11.3 | 0.00 | 0.00 | 0.00 | 54 | 1022.3 |
| 20260903165052 | 26 | 37 | 1.6 | 11.3 | 0.00 | 0.00 | 0.00 | 57 | 1022.2 |
| 20260903164602 | 26 | 52 | 4.8 | 11.3 | 0.00 | 0.00 | 0.00 | 57 | 1022.2 |
| 20260903164055 | 26 | 42 | 3.2 | 8.0 | 0.00 | 0.00 | 0.00 | 59 | 1022.3 |
| 20260903163555 | 25 | 53 | 4.8 | 8.0 | 0.00 | 0.00 | 0.00 | 61 | 1022.1 |
| 20260903163102 | 25 | 8 | 3.2 | 8.0 | 0.00 | 0.00 | 0.00 | 62 | 1022.3 |
| 20260903162555 | 25 | 358 | 3.2 | 8.0 | 0.00 | 0.00 | 0.00 | 62 | 1022.2 |
| 20260903162055 | 25 | 354 | 3.2 | 6.4 | 0.00 | 0.00 | 0.00 | 63 | 1022.3 |
| 20260903161608 | 25 | 354 | 1.6 | 4.8 | 0.00 | 0.00 | 0.00 | 64 | 1022.2 |
| 20260903161055 | 24 | 354 | 1.6 | 6.4 | 0.00 | 0.00 | 0.00 | 64 | 1022.3 |
| 20260903160555 | 24 | 354 | 3.2 | 6.4 | 0.00 | 0.00 | 0.00 | 63 | 1022.3 |
| 20260903160105 | 24 | 354 | 3.2 | 8.0 | 0.00 | 0.00 | 0.00 | 65 | 1022.3 |
| 20260903155551 | 23 | 355 | 3.2 | 8.0 | 0.00 | 0.00 | 0.00 | 67 | 1022.3 |
| 20260903155054 | 23 | 354 | 0.0 | 4.8 | 0.00 | 0.00 | 0.00 | 67 | 1022.3 |
| 20260903154604 | 23 | 354 | 1.6 | 4.8 | 0.00 | 0.00 | 0.00 | 68 | 1022.3 |
| 20260903154056 | 23 | 353 | 1.6 | 4.8 | 0.00 | 0.00 | 0.00 | 68 | 1022.2 |
| 20260903153557 | 23 | 353 | 1.6 | 4.8 | 0.00 | 0.00 | 0.00 | 68 | 1022.2 |
| 20260903153103 | 23 | 336 | 1.6 | 4.8 | 0.00 | 0.00 | 0.00 | 69 | 1022.1 |
| 20260903152552 | 23 | 328 | 1.6 | 4.8 | 0.00 | 0.00 | 0.00 | 68 | 1022.2 |
| 20260903152057 | 23 | 323 | 1.6 | 4.8 | 0.00 | 0.00 | 0.00 | 69 | 1022.2 |
| 20260903151612 | 23 | 0 | 0.0 | 3.2 | 0.00 | 0.00 | 0.00 | 69 | 1022.2 |
| 20260903151055 | 23 | 321 | 1.6 | 3.2 | 0.00 | 0.00 | 0.00 | 70 | 1022.2 |
| 20260903150556 | 22 | 321 | 1.6 | 3.2 | 0.00 | 0.00 | 0.00 | 69 | 1022.2 |
| 20260903150106 | 22 | 0 | 0.0 | 4.8 | 0.00 | 0.00 | 0.00 | 71 | 1022.3 |
| 20260903145555 | 22 | 320 | 1.6 | 4.8 | 0.00 | 0.00 | 0.00 | 70 | 1022.3 |
| 20260903145055 | 22 | 319 | 1.6 | 4.8 | 0.00 | 0.00 | 0.00 | 70 | 1022.3 |
| 20260903144608 | 22 | 294 | 0.0 | 4.8 | 0.00 | 0.00 | 0.00 | 70 | 1022.2 |
| 20260903144055 | 22 | 0 | 1.6 | 6.4 | 0.00 | 0.00 | 0.00 | 69 | 1022.2 |
| 20260903143554 | 22 | 294 | 0.0 | 6.4 | 0.00 | 0.00 | 0.00 | 69 | 1022.3 |
| 20260903143110 | 22 | 294 | 1.6 | 6.4 | 0.00 | 0.00 | 0.00 | 69 | 1022.2 |
| 20260903142556 | 22 | 0 | 0.0 | 6.4 | 0.00 | 0.00 | 0.00 | 69 | 1022.3 |
| 20260903142055 | 22 | 160 | 1.6 | 8.0 | 0.00 | 0.00 | 0.00 | 70 | 1022.4 |
| 20260903141601 | 22 | 158 | 3.2 | 11.3 | 0.00 | 0.00 | 0.00 | 70 | 1022.3 |
| 20260903141055 | 22 | 174 | 4.8 | 11.3 | 0.00 | 0.00 | 0.00 | 71 | 1022.2 |
| 20260903140556 | 22 | 170 | 6.4 | 11.3 | 0.00 | 0.00 | 0.00 | 71 | 1022.2 |
| 20260903140105 | 21 | 173 | 6.4 | 12.9 | 0.00 | 0.00 | 0.00 | 72 | 1022.1 |
| 20260903135555 | 21 | 155 | 6.4 | 14.5 | 0.00 | 0.00 | 0.00 | 73 | 1022.1 |
| 20260903135055 | 21 | 150 | 8.0 | 14.5 | 0.00 | 0.00 | 0.00 | 74 | 1022.1 |
| 20260903134610 | 21 | 148 | 9.7 | 14.5 | 0.00 | 0.00 | 0.00 | 74 | 1022.0 |
| 20260903134054 | 20 | 152 | 6.4 | 14.5 | 0.00 | 0.00 | 0.00 | 75 | 1022.1 |
| 20260903133555 | 20 | 145 | 6.4 | 14.5 | 0.00 | 0.00 | 0.00 | 76 | 1022.0 |
| 20260903133109 | 20 | 141 | 6.4 | 11.3 | 0.00 | 0.00 | 0.00 | 76 | 1022.0 |
| 20260903132555 | 20 | 148 | 6.4 | 9.7 | 0.00 | 0.00 | 0.00 | 76 | 1022.0 |
| 20260903132056 | 20 | 151 | 4.8 | 12.9 | 0.00 | 0.00 | 0.00 | 76 | 1021.9 |
| 20260903131608 | 20 | 171 | 6.4 | 12.9 | 0.00 | 0.00 | 0.00 | 76 | 1021.9 |
| 20260903131055 | 20 | 162 | 8.0 | 12.9 | 0.00 | 0.00 | 0.00 | 76 | 1021.8 |
| 20260903130554 | 20 | 149 | 6.4 | 11.3 | 0.00 | 0.00 | 0.00 | 76 | 1021.7 |
| 20260903130111 | 20 | 139 | 6.4 | 12.9 | 0.00 | 0.00 | 0.00 | 76 | 1021.6 |
| 20260903125556 | 20 | 133 | 6.4 | 12.9 | 0.00 | 0.00 | 0.00 | 76 | 1021.6 |
| 20260903125056 | 20 | 119 | 6.4 | 12.9 | 0.00 | 0.00 | 0.00 | 76 | 1021.6 |
| 20260903124610 | 20 | 127 | 8.0 | 12.9 | 0.00 | 0.00 | 0.00 | 76 | 1021.6 |
| 20260903124056 | 20 | 122 | 4.8 | 11.3 | 0.00 | 0.00 | 0.00 | 76 | 1021.5 |
| 20260903123557 | 20 | 125 | 4.8 | 9.7 | 0.00 | 0.00 | 0.00 | 75 | 1021.5 |
| 20260903123104 | 20 | 126 | 4.8 | 17.7 | 0.00 | 0.00 | 0.00 | 75 | 1021.4 |
| 20260903122555 | 20 | 134 | 6.4 | 17.7 | 0.00 | 0.00 | 0.00 | 75 | 1021.5 |
| 20260903122056 | 20 | 148 | 9.7 | 17.7 | 0.00 | 0.00 | 0.00 | 75 | 1021.4 |
| 20260903121604 | 20 | 158 | 9.7 | 16.1 | 0.00 | 0.00 | 0.00 | 74 | 1021.5 |
| 20260903121055 | 20 | 155 | 9.7 | 17.7 | 0.00 | 0.00 | 0.00 | 74 | 1021.5 |
| 20260903120558 | 20 | 148 | 9.7 | 17.7 | 0.00 | 0.00 | 0.00 | 74 | 1021.5 |
| 20260903120106 | 20 | 123 | 8.0 | 17.7 | 0.00 | 0.00 | 0.00 | 74 | 1021.5 |
| 20260903115555 | 21 | 162 | 9.7 | 19.3 | 0.00 | 0.00 | 0.00 | 73 | 1021.5 |
| 20260903115054 | 21 | 132 | 11.3 | 19.3 | 0.00 | 0.00 | 0.00 | 73 | 1021.4 |
| 20260903114611 | 21 | 155 | 12.9 | 19.3 | 0.00 | 0.00 | 0.00 | 73 | 1021.4 |
| 20260903114057 | 21 | 153 | 12.9 | 19.3 | 0.00 | 0.00 | 0.00 | 73 | 1021.3 |
| 20260903113601 | 21 | 161 | 9.7 | 16.1 | 0.00 | 0.00 | 0.00 | 73 | 1021.4 |
| 20260903113112 | 21 | 139 | 11.3 | 17.7 | 0.00 | 0.00 | 0.00 | 74 | 1021.3 |
| 20260903112556 | 21 | 146 | 11.3 | 17.7 | 0.00 | 0.00 | 0.00 | 74 | 1021.3 |
| 20260903112059 | 21 | 153 | 11.3 | 20.9 | 0.00 | 0.00 | 0.00 | 74 | 1021.3 |
| 20260903111601 | 21 | 126 | 12.9 | 20.9 | 0.00 | 0.00 | 0.00 | 75 | 1021.3 |
| 20260903111057 | 21 | 136 | 11.3 | 17.7 | 0.00 | 0.00 | 0.00 | 75 | 1021.1 |
| 20260903110554 | 22 | 136 | 8.0 | 12.9 | 0.00 | 0.00 | 0.00 | 75 | 1021.1 |
| 20260903110107 | 22 | 146 | 8.0 | 12.9 | 0.00 | 0.00 | 0.00 | 75 | 1021.0 |
| 20260903105559 | 22 | 123 | 6.4 | 11.3 | 0.00 | 0.00 | 0.00 | 74 | 1021.0 |
| 20260903105057 | 22 | 130 | 4.8 | 9.7 | 0.00 | 0.00 | 0.00 | 73 | 1021.0 |
| 20260903104607 | 22 | 122 | 6.4 | 9.7 | 0.00 | 0.00 | 0.00 | 74 | 1021.0 |
| 20260903104054 | 22 | 103 | 4.8 | 8.0 | 0.00 | 0.00 | 0.00 | 74 | 1021.1 |
| 20260903103556 | 22 | 47 | 1.6 | 8.0 | 0.00 | 0.00 | 0.00 | 74 | 1021.1 |
| 20260903103104 | 22 | 44 | 4.8 | 11.3 | 0.00 | 0.00 | 0.00 | 74 | 1021.0 |
| 20260903102557 | 22 | 3 | 6.4 | 11.3 | 0.00 | 0.00 | 0.00 | 74 | 1021.1 |
| 20260903102055 | 22 | 15 | 0.0 | 8.0 | 0.00 | 0.00 | 0.00 | 73 | 1021.1 |
| 20260903101611 | 22 | 0 | 0.0 | 1.6 | 0.00 | 0.00 | 0.00 | 73 | 1021.0 |
| 20260903101056 | 22 | 0 | 0.0 | 1.6 | 0.00 | 0.00 | 0.00 | 72 | 1021.2 |
| 20260903100556 | 22 | 0 | 0.0 | 1.6 | 0.00 | 0.00 | 0.00 | 72 | 1021.2 |
| 20260903095555 | 22 | 0 | 0.0 | 8.0 | 0.00 | 0.00 | 0.00 | 71 | 1021.1 |
| 20260903095056 | 22 | 0 | 3.2 | 8.0 | 0.00 | 0.00 | 0.00 | 72 | 1021.1 |
| 20260903094609 | 22 | 123 | 0.0 | 4.8 | 0.00 | 0.00 | 0.00 | 71 | 1021.2 |
| 20260903094056 | 22 | 0 | 0.0 | 0.0 | 0.00 | 0.00 | 0.00 | 70 | 1021.2 |
| 20260903093559 | 22 | 0 | 0.0 | 3.2 | 0.00 | 0.00 | 0.00 | 69 | 1021.2 |
| 20260903093107 | 23 | 0 | 0.0 | 4.8 | 0.00 | 0.00 | 0.00 | 69 | 1021.1 |
| 20260903092600 | 23 | 0 | 1.6 | 4.8 | 0.00 | 0.00 | 0.00 | 69 | 1021.3 |
| 20260903092056 | 23 | 123 | 1.6 | 4.8 | 0.00 | 0.00 | 0.00 | 69 | 1021.3 |
| 20260903091607 | 23 | 123 | 0.0 | 3.2 | 0.00 | 0.00 | 0.00 | 69 | 1021.4 |
| 20260903091053 | 23 | 123 | 0.0 | 3.2 | 0.00 | 0.00 | 0.00 | 69 | 1021.3 |
| 20260903090611 | 23 | 123 | 1.6 | 4.8 | 0.00 | 0.00 | 0.00 | 69 | 1021.3 |
| 20260903090105 | 23 | 123 | 0.0 | 4.8 | 0.00 | 0.00 | 0.00 | 69 | 1021.3 |
| 20260903085555 | 23 | 0 | 0.0 | 4.8 | 0.00 | 0.00 | 0.00 | 69 | 1021.4 |
| 20260903085053 | 23 | 0 | 0.0 | 4.8 | 0.00 | 0.00 | 0.00 | 69 | 1021.5 |
| 20260903084604 | 23 | 123 | 0.0 | 4.8 | 0.00 | 0.00 | 0.00 | 69 | 1021.4 |
| 20260903084056 | 22 | 123 | 1.6 | 4.8 | 0.00 | 0.00 | 0.00 | 69 | 1021.5 |
| 20260903083553 | 22 | 123 | 1.6 | 4.8 | 0.00 | 0.00 | 0.00 | 69 | 1021.6 |
| 20260903083104 | 22 | 0 | 0.0 | 1.6 | 0.00 | 0.00 | 0.00 | 70 | 1021.7 |
| 20260903082555 | 22 | 0 | 0.0 | 0.0 | 0.00 | 0.00 | 0.00 | 70 | 1021.7 |
| 20260903082055 | 22 | 0 | 0.0 | 0.0 | 0.00 | 0.00 | 0.00 | 69 | 1021.9 |
| 20260903081601 | 22 | 0 | 0.0 | 0.0 | 0.00 | 0.00 | 0.00 | 69 | 1021.9 |
| 20260903081056 | 22 | 0 | 0.0 | 4.8 | 0.00 | 0.00 | 0.00 | 70 | 1021.8 |
| 20260903080556 | 23 | 0 | 0.0 | 4.8 | 0.00 | 0.00 | 0.00 | 71 | 1021.8 |
| 20260903075554 | 23 | 0 | 0.0 | 6.4 | 0.00 | 0.00 | 0.00 | 70 | 1021.9 |
| 20260903075054 | 23 | 0 | 0.0 | 6.4 | 0.00 | 0.00 | 0.00 | 70 | 1021.8 |
| 20260903074603 | 23 | 0 | 1.6 | 4.8 | 0.00 | 0.00 | 0.00 | 69 | 1021.9 |
| 20260903074056 | 23 | 123 | 1.6 | 6.4 | 0.00 | 0.00 | 0.00 | 68 | 1021.8 |
| 20260903073555 | 23 | 123 | 3.2 | 6.4 | 0.00 | 0.00 | 0.00 | 69 | 1021.9 |
| 20260903073105 | 23 | 123 | 3.2 | 4.8 | 0.00 | 0.00 | 0.00 | 68 | 1021.9 |
| 20260903072556 | 23 | 123 | 3.2 | 6.4 | 0.00 | 0.00 | 0.00 | 68 | 1021.9 |
| 20260903072055 | 23 | 123 | 3.2 | 6.4 | 0.00 | 0.00 | 0.00 | 68 | 1022.0 |
| 20260903071604 | 23 | 123 | 3.2 | 4.8 | 0.00 | 0.00 | 0.00 | 68 | 1021.9 |
| 20260903071059 | 23 | 123 | 0.0 | 4.8 | 0.00 | 0.00 | 0.00 | 68 | 1022.0 |
| 20260903070556 | 23 | 0 | 0.0 | 1.6 | 0.00 | 0.00 | 0.00 | 67 | 1022.0 |
| 20260903070105 | 23 | 0 | 0.0 | 1.6 | 0.00 | 0.00 | 0.00 | 66 | 1021.9 |
| 20260903065554 | 23 | 0 | 0.0 | 3.2 | 0.00 | 0.00 | 0.00 | 66 | 1022.0 |
| 20260903065057 | 23 | 0 | 0.0 | 3.2 | 0.00 | 0.00 | 0.00 | 65 | 1021.8 |
| 20260903064603 | 23 | 123 | 0.0 | 3.2 | 0.00 | 0.00 | 0.00 | 65 | 1021.9 |
| 20260903064055 | 24 | 0 | 0.0 | 4.8 | 0.00 | 0.00 | 0.00 | 65 | 1021.8 |
| 20260903063554 | 24 | 123 | 0.0 | 6.4 | 0.00 | 0.00 | 0.00 | 65 | 1021.7 |
| 20260903063104 | 24 | 123 | 3.2 | 6.4 | 0.00 | 0.00 | 0.00 | 64 | 1021.7 |
| 20260903062556 | 24 | 123 | 1.6 | 8.0 | 0.00 | 0.00 | 0.00 | 64 | 1021.7 |
| 20260903062056 | 24 | 123 | 3.2 | 8.0 | 0.00 | 0.00 | 0.00 | 64 | 1021.6 |
| 20260903061617 | 24 | 123 | 3.2 | 8.0 | 0.00 | 0.00 | 0.00 | 64 | 1021.6 |
| 20260903061054 | 24 | 122 | 4.8 | 11.3 | 0.00 | 0.00 | 0.00 | 64 | 1021.6 |
| 20260903060555 | 23 | 114 | 4.8 | 12.9 | 0.00 | 0.00 | 0.00 | 64 | 1021.6 |
| 20260903060145 | 23 | 129 | 6.4 | 12.9 | 0.00 | 0.00 | 0.00 | 65 | 1021.5 |
| 20260903023556 | 26 | 288 | 1.6 | 9.7 | 0.00 | 0.00 | 0.00 | 55 | 1020.7 |
| 20260903023135 | 26 | 299 | 4.8 | 9.7 | 0.00 | 0.00 | 0.00 | 54 | 1020.8 |
| 20260903022619 | 26 | 288 | 4.8 | 9.7 | 0.00 | 0.00 | 0.00 | 52 | 1020.6 |
| 20260903022058 | 26 | 292 | 4.8 | 11.3 | 0.00 | 0.00 | 0.00 | 51 | 1020.7 |
| 20260903021611 | 26 | 309 | 4.8 | 11.3 | 0.00 | 0.00 | 0.00 | 51 | 1020.5 |
| 20260903021055 | 26 | 288 | 6.4 | 11.3 | 0.00 | 0.00 | 0.00 | 51 | 1020.5 |
| 20260903020556 | 27 | 302 | 4.8 | 9.7 | 0.00 | 0.00 | 0.00 | 53 | 1020.6 |
| 20260903020108 | 27 | 307 | 4.8 | 9.7 | 0.00 | 0.00 | 0.00 | 53 | 1020.4 |
| 20260903015555 | 27 | 294 | 4.8 | 9.7 | 0.00 | 0.00 | 0.00 | 53 | 1020.2 |
| 20260903015055 | 27 | 305 | 4.8 | 9.7 | 0.00 | 0.00 | 0.00 | 52 | 1020.2 |
| 20260903014604 | 27 | 306 | 3.2 | 9.7 | 0.00 | 0.00 | 0.00 | 52 | 1020.2 |
| 20260903014149 | 27 | 297 | 3.2 | 8.0 | 0.00 | 0.00 | 0.00 | 51 | 1020.2 |
| 20260902183626 | 28 | 0 | 1.6 | 6.4 | 0.00 | 0.00 | 0.00 | 39 | 1023.1 |
| 20260902183115 | 28 | 68 | 1.6 | 4.8 | 0.00 | 0.00 | 0.00 | 39 | 1023.1 |
| 20260902182555 | 28 | 0 | 0.0 | 4.8 | 0.00 | 0.00 | 0.00 | 39 | 1023.2 |
| 20260902182059 | 28 | 0 | 1.6 | 9.7 | 0.00 | 0.00 | 0.00 | 39 | 1023.3 |
| 20260902181606 | 28 | 68 | 1.6 | 11.3 | 0.00 | 0.00 | 0.00 | 39 | 1023.4 |
| 20260902181055 | 28 | 68 | 4.8 | 11.3 | 0.00 | 0.00 | 0.00 | 38 | 1023.5 |
| 20260902180553 | 28 | 63 | 8.0 | 11.3 | 0.00 | 0.00 | 0.00 | 39 | 1023.6 |
| 20260902175553 | 29 | 1 | 4.8 | 12.9 | 0.00 | 0.00 | 0.00 | 39 | 1023.6 |
| 20260902175055 | 29 | 3 | 8.0 | 12.9 | 0.00 | 0.00 | 0.00 | 41 | 1023.6 |